| time (UTC) | temp F | wind direction | speed MPH | gust MPH | rain 1hr in | rain 24hr in | rain mn in | humidity % | barometer mb |
| 20260507001003 | 66 | 341 | 7.0 | 17.0 | 0.00 | 0.00 | 0.00 | 77 | 1013.3 |
| 20260507000504 | 66 | 343 | 7.0 | 14.0 | 0.00 | 0.00 | 0.00 | 77 | 1013.1 |
| 20260507000003 | 66 | 338 | 6.0 | 14.0 | 0.00 | 0.00 | 0.00 | 77 | 1013.3 |
| 20260506235503 | 66 | 344 | 8.0 | 17.0 | 0.00 | 0.00 | 0.00 | 77 | 1013.2 |
| 20260506235003 | 66 | 345 | 7.0 | 17.0 | 0.00 | 0.00 | 0.00 | 76 | 1013.1 |
| 20260506234504 | 66 | 337 | 7.0 | 13.0 | 0.00 | 0.00 | 0.00 | 76 | 1013.1 |
| 20260506234003 | 66 | 339 | 8.0 | 16.0 | 0.00 | 0.00 | 0.00 | 76 | 1013.2 |
| 20260506233524 | 66 | 338 | 8.0 | 19.0 | 0.00 | 0.00 | 0.00 | 76 | 1013.1 |
| 20260506233025 | 66 | 336 | 8.0 | 19.0 | 0.00 | 0.00 | 0.00 | 76 | 1013.0 |
| 20260506232503 | 67 | 331 | 8.0 | 16.0 | 0.00 | 0.00 | 0.00 | 74 | 1013.0 |
| 20260506232003 | 67 | 335 | 7.0 | 17.0 | 0.00 | 0.00 | 0.00 | 74 | 1012.9 |
| 20260506231503 | 67 | 335 | 7.0 | 17.0 | 0.00 | 0.00 | 0.00 | 74 | 1012.8 |
| 20260506231004 | 67 | 327 | 6.0 | 16.0 | 0.00 | 0.00 | 0.00 | 74 | 1012.8 |
| 20260506230503 | 67 | 327 | 7.0 | 16.0 | 0.00 | 0.00 | 0.00 | 74 | 1012.9 |
| 20260506230003 | 68 | 329 | 8.0 | 16.0 | 0.00 | 0.00 | 0.00 | 73 | 1012.8 |
| 20260506225524 | 68 | 331 | 8.0 | 20.0 | 0.00 | 0.00 | 0.00 | 74 | 1012.9 |
| 20260506225004 | 68 | 329 | 10.0 | 20.0 | 0.00 | 0.00 | 0.00 | 73 | 1012.9 |
| 20260506224503 | 68 | 334 | 10.0 | 19.0 | 0.00 | 0.00 | 0.00 | 72 | 1012.8 |
| 20260506224003 | 68 | 337 | 11.0 | 18.0 | 0.00 | 0.00 | 0.00 | 71 | 1012.7 |
| 20260506223525 | 69 | 335 | 11.0 | 22.0 | 0.00 | 0.00 | 0.00 | 70 | 1012.8 |
| 20260506223003 | 70 | 338 | 8.0 | 22.0 | 0.00 | 0.00 | 0.00 | 70 | 1012.7 |
| 20260506222503 | 70 | 341 | 8.0 | 19.0 | 0.00 | 0.00 | 0.00 | 69 | 1012.5 |
| 20260506222003 | 71 | 336 | 8.0 | 19.0 | 0.00 | 0.00 | 0.00 | 69 | 1012.4 |
| 20260506221524 | 71 | 331 | 8.0 | 16.0 | 0.00 | 0.00 | 0.00 | 69 | 1012.4 |
| 20260506221003 | 72 | 342 | 10.0 | 24.0 | 0.00 | 0.00 | 0.00 | 68 | 1012.7 |
| 20260506220503 | 72 | 343 | 11.0 | 24.0 | 0.00 | 0.00 | 0.00 | 67 | 1012.5 |
| 20260506220003 | 73 | 338 | 11.0 | 19.0 | 0.00 | 0.00 | 0.00 | 66 | 1012.6 |
| 20260506215503 | 74 | 342 | 11.0 | 19.0 | 0.00 | 0.00 | 0.00 | 65 | 1012.5 |
| 20260506215024 | 75 | 343 | 11.0 | 19.0 | 0.00 | 0.00 | 0.00 | 63 | 1012.5 |
| 20260506214504 | 76 | 337 | 11.0 | 19.0 | 0.00 | 0.00 | 0.00 | 63 | 1012.4 |
| 20260506214003 | 76 | 336 | 10.0 | 18.0 | 0.00 | 0.00 | 0.00 | 63 | 1012.3 |
| 20260506213524 | 77 | 344 | 10.0 | 19.0 | 0.00 | 0.00 | 0.00 | 63 | 1012.2 |
| 20260506213003 | 77 | 341 | 10.0 | 19.0 | 0.00 | 0.00 | 0.00 | 63 | 1012.1 |
| 20260506212503 | 77 | 327 | 8.0 | 22.0 | 0.00 | 0.00 | 0.00 | 64 | 1012.0 |
| 20260506212003 | 78 | 322 | 10.0 | 22.0 | 0.00 | 0.00 | 0.00 | 63 | 1012.0 |
| 20260506211503 | 78 | 324 | 11.0 | 22.0 | 0.00 | 0.00 | 0.00 | 64 | 1012.0 |
| 20260506211003 | 78 | 330 | 11.0 | 22.0 | 0.00 | 0.00 | 0.00 | 64 | 1012.1 |
| 20260506210503 | 78 | 336 | 11.0 | 22.0 | 0.00 | 0.00 | 0.00 | 64 | 1012.1 |
| 20260506210003 | 79 | 344 | 8.0 | 20.0 | 0.00 | 0.00 | 0.00 | 64 | 1012.0 |
| 20260506205503 | 79 | 348 | 7.0 | 17.0 | 0.00 | 0.00 | 0.00 | 65 | 1012.0 |
| 20260506205003 | 79 | 338 | 8.0 | 16.0 | 0.00 | 0.00 | 0.00 | 66 | 1012.0 |
| 20260506204503 | 78 | 335 | 8.0 | 18.0 | 0.00 | 0.00 | 0.00 | 68 | 1012.1 |
| 20260506204003 | 78 | 331 | 8.0 | 19.0 | 0.00 | 0.00 | 0.00 | 68 | 1012.3 |
| 20260506203503 | 78 | 331 | 8.0 | 19.0 | 0.00 | 0.00 | 0.00 | 68 | 1012.3 |
| 20260506203024 | 77 | 336 | 10.0 | 19.0 | 0.00 | 0.00 | 0.00 | 69 | 1012.3 |
| 20260506202003 | 77 | 333 | 10.0 | 23.0 | 0.00 | 0.00 | 0.00 | 70 | 1012.3 |
| 20260506201524 | 77 | 329 | 10.0 | 19.0 | 0.00 | 0.00 | 0.00 | 71 | 1012.3 |
| 20260506201025 | 77 | 324 | 8.0 | 16.0 | 0.00 | 0.00 | 0.00 | 71 | 1012.2 |
| 20260506200539 | 77 | 322 | 8.0 | 17.0 | 0.00 | 0.00 | 0.00 | 70 | 1012.2 |
| 20260506155503 | 78 | 84 | 2.0 | 7.0 | 0.00 | 0.00 | 0.00 | 90 | 1012.5 |
| 20260506155003 | 78 | 140 | 2.0 | 6.0 | 0.00 | 0.00 | 0.00 | 90 | 1012.6 |
| 20260506154504 | 77 | 144 | 2.0 | 5.0 | 0.00 | 0.00 | 0.00 | 90 | 1012.4 |
| 20260506154004 | 77 | 144 | 2.0 | 5.0 | 0.00 | 0.00 | 0.00 | 90 | 1012.4 |
| 20260506153504 | 77 | 147 | 1.0 | 4.0 | 0.00 | 0.00 | 0.00 | 90 | 1012.3 |
| 20260506153004 | 77 | 158 | 1.0 | 2.0 | 0.00 | 0.00 | 0.00 | 90 | 1012.1 |
| 20260506152525 | 77 | 160 | 1.0 | 2.0 | 0.00 | 0.00 | 0.00 | 89 | 1012.0 |
| 20260506152004 | 77 | 160 | 1.0 | 4.0 | 0.00 | 0.00 | 0.00 | 89 | 1011.8 |
| 20260506151504 | 77 | 160 | 1.0 | 4.0 | 0.00 | 0.00 | 0.00 | 89 | 1011.8 |
| 20260506151004 | 77 | 160 | 1.0 | 4.0 | 0.00 | 0.00 | 0.00 | 90 | 1011.5 |
| 20260506150525 | 77 | 160 | 2.0 | 4.0 | 0.00 | 0.00 | 0.00 | 90 | 1011.5 |
| 20260506150004 | 77 | 160 | 2.0 | 4.0 | 0.00 | 0.00 | 0.00 | 90 | 1011.4 |
| 20260506145504 | 77 | 160 | 2.0 | 4.0 | 0.00 | 0.00 | 0.00 | 90 | 1011.3 |
| 20260506145004 | 77 | 160 | 2.0 | 5.0 | 0.00 | 0.00 | 0.00 | 90 | 1011.2 |
| 20260506144504 | 77 | 160 | 2.0 | 5.0 | 0.00 | 0.00 | 0.00 | 90 | 1011.3 |
| 20260506144025 | 77 | 160 | 2.0 | 6.0 | 0.00 | 0.00 | 0.00 | 90 | 1011.2 |
| 20260506143504 | 77 | 160 | 4.0 | 6.0 | 0.00 | 0.00 | 0.00 | 90 | 1011.1 |
| 20260506143004 | 77 | 160 | 4.0 | 6.0 | 0.00 | 0.00 | 0.00 | 91 | 1010.9 |
| 20260506142504 | 76 | 161 | 2.0 | 6.0 | 0.00 | 0.00 | 0.00 | 91 | 1010.6 |
| 20260506142025 | 76 | 161 | 2.0 | 5.0 | 0.00 | 0.00 | 0.00 | 91 | 1010.8 |
| 20260506141503 | 76 | 161 | 1.0 | 4.0 | 0.00 | 0.00 | 0.00 | 91 | 1011.0 |
| 20260506141004 | 76 | 161 | 0.0 | 4.0 | 0.00 | 0.00 | 0.00 | 91 | 1011.2 |
| 20260506140504 | 76 | 161 | 1.0 | 4.0 | 0.00 | 0.00 | 0.00 | 91 | 1011.2 |
| 20260506140004 | 76 | 161 | 2.0 | 6.0 | 0.00 | 0.00 | 0.00 | 91 | 1011.1 |
| 20260506135504 | 76 | 161 | 2.0 | 6.0 | 0.00 | 0.00 | 0.00 | 91 | 1010.8 |
| 20260506135025 | 76 | 161 | 2.0 | 5.0 | 0.00 | 0.00 | 0.00 | 92 | 1010.4 |
| 20260506134504 | 76 | 161 | 1.0 | 4.0 | 0.00 | 0.00 | 0.00 | 92 | 1010.2 |
| 20260506134004 | 76 | 161 | 1.0 | 5.0 | 0.00 | 0.00 | 0.00 | 92 | 1010.4 |
| 20260506133504 | 76 | 161 | 4.0 | 6.0 | 0.00 | 0.00 | 0.00 | 92 | 1010.3 |
| 20260506133025 | 76 | 161 | 2.0 | 6.0 | 0.00 | 0.00 | 0.00 | 92 | 1010.2 |
| 20260506132504 | 76 | 161 | 2.0 | 6.0 | 0.00 | 0.00 | 0.00 | 92 | 1010.2 |
| 20260506132004 | 76 | 161 | 2.0 | 6.0 | 0.00 | 0.00 | 0.00 | 92 | 1010.2 |
| 20260506131504 | 76 | 161 | 4.0 | 7.0 | 0.00 | 0.00 | 0.00 | 92 | 1010.3 |
| 20260506131003 | 76 | 162 | 4.0 | 7.0 | 0.00 | 0.00 | 0.00 | 92 | 1010.1 |
| 20260506130505 | 76 | 162 | 2.0 | 6.0 | 0.00 | 0.00 | 0.00 | 92 | 1010.1 |
| 20260506130005 | 75 | 162 | 2.0 | 7.0 | 0.00 | 0.00 | 0.00 | 91 | 1010.1 |
| 20260506125503 | 75 | 162 | 4.0 | 7.0 | 0.00 | 0.00 | 0.00 | 91 | 1010.0 |
| 20260506125004 | 75 | 164 | 4.0 | 7.0 | 0.00 | 0.00 | 0.00 | 91 | 1009.9 |
| 20260506124525 | 75 | 167 | 2.0 | 6.0 | 0.00 | 0.00 | 0.00 | 91 | 1010.0 |
| 20260506124004 | 75 | 167 | 2.0 | 5.0 | 0.00 | 0.00 | 0.00 | 91 | 1010.0 |
| 20260506123504 | 75 | 167 | 2.0 | 5.0 | 0.00 | 0.00 | 0.00 | 91 | 1009.9 |
| 20260506123004 | 75 | 167 | 4.0 | 6.0 | 0.00 | 0.00 | 0.00 | 91 | 1010.0 |
| 20260506122504 | 75 | 167 | 2.0 | 6.0 | 0.00 | 0.00 | 0.00 | 91 | 1010.1 |
| 20260506122024 | 75 | 167 | 2.0 | 6.0 | 0.00 | 0.00 | 0.00 | 91 | 1010.1 |
| 20260506121524 | 75 | 170 | 2.0 | 6.0 | 0.00 | 0.00 | 0.00 | 91 | 1010.0 |
| 20260506121004 | 75 | 172 | 2.0 | 5.0 | 0.00 | 0.00 | 0.00 | 91 | 1009.9 |
| 20260506120504 | 75 | 172 | 1.0 | 4.0 | 0.00 | 0.00 | 0.00 | 90 | 1009.9 |
| 20260506120004 | 75 | 172 | 1.0 | 4.0 | 0.00 | 0.00 | 0.00 | 90 | 1009.8 |
| 20260506115525 | 75 | 172 | 1.0 | 4.0 | 0.00 | 0.00 | 0.00 | 90 | 1009.8 |
| 20260506115004 | 75 | 172 | 1.0 | 5.0 | 0.00 | 0.00 | 0.00 | 90 | 1009.7 |
| 20260506114503 | 75 | 172 | 1.0 | 5.0 | 0.00 | 0.00 | 0.00 | 90 | 1009.8 |
| 20260506114003 | 75 | 172 | 1.0 | 4.0 | 0.00 | 0.00 | 0.00 | 90 | 1009.8 |
| 20260506113503 | 75 | 172 | 1.0 | 4.0 | 0.00 | 0.00 | 0.00 | 90 | 1009.8 |
| 20260506113025 | 76 | 172 | 1.0 | 4.0 | 0.00 | 0.00 | 0.00 | 90 | 1009.8 |
| 20260506112504 | 76 | 172 | 1.0 | 2.0 | 0.00 | 0.00 | 0.00 | 90 | 1009.7 |
| 20260506112003 | 75 | 172 | 1.0 | 2.0 | 0.00 | 0.00 | 0.00 | 90 | 1009.8 |
| 20260506111524 | 76 | 172 | 1.0 | 4.0 | 0.00 | 0.00 | 0.00 | 90 | 1009.8 |
| 20260506111004 | 76 | 172 | 2.0 | 5.0 | 0.00 | 0.00 | 0.00 | 90 | 1009.7 |
| 20260506110525 | 76 | 172 | 2.0 | 6.0 | 0.00 | 0.00 | 0.00 | 90 | 1009.6 |
| 20260506110004 | 76 | 172 | 1.0 | 6.0 | 0.00 | 0.00 | 0.00 | 90 | 1009.6 |
| 20260506105504 | 76 | 172 | 2.0 | 6.0 | 0.00 | 0.00 | 0.00 | 91 | 1009.6 |
| 20260506105004 | 76 | 172 | 2.0 | 6.0 | 0.00 | 0.00 | 0.00 | 90 | 1009.5 |
| 20260506104504 | 76 | 172 | 2.0 | 7.0 | 0.00 | 0.00 | 0.00 | 91 | 1009.4 |
| 20260506104025 | 76 | 172 | 4.0 | 7.0 | 0.00 | 0.00 | 0.00 | 91 | 1009.5 |
| 20260506103525 | 76 | 172 | 2.0 | 7.0 | 0.00 | 0.00 | 0.00 | 91 | 1009.4 |
| 20260506103025 | 76 | 172 | 4.0 | 7.0 | 0.00 | 0.00 | 0.00 | 91 | 1009.2 |
| 20260506102525 | 76 | 171 | 4.0 | 8.0 | 0.00 | 0.00 | 0.00 | 90 | 1009.2 |
| 20260506102003 | 76 | 174 | 4.0 | 8.0 | 0.00 | 0.00 | 0.00 | 91 | 1009.2 |
| 20260506101503 | 76 | 179 | 5.0 | 8.0 | 0.00 | 0.00 | 0.00 | 91 | 1009.1 |
| 20260506101004 | 76 | 180 | 5.0 | 8.0 | 0.00 | 0.00 | 0.00 | 91 | 1009.0 |
| 20260506100525 | 76 | 181 | 5.0 | 8.0 | 0.00 | 0.00 | 0.00 | 91 | 1009.0 |
| 20260506100025 | 76 | 172 | 5.0 | 10.0 | 0.00 | 0.00 | 0.00 | 91 | 1009.0 |
| 20260506095503 | 76 | 160 | 5.0 | 10.0 | 0.00 | 0.00 | 0.00 | 91 | 1009.0 |
| 20260506095004 | 76 | 173 | 5.0 | 8.0 | 0.00 | 0.00 | 0.00 | 91 | 1009.0 |
| 20260506094503 | 76 | 174 | 5.0 | 8.0 | 0.00 | 0.00 | 0.00 | 91 | 1009.0 |
| 20260506094004 | 76 | 168 | 5.0 | 10.0 | 0.00 | 0.00 | 0.00 | 91 | 1008.9 |
| 20260506093503 | 76 | 173 | 5.0 | 10.0 | 0.00 | 0.00 | 0.00 | 91 | 1008.8 |
| 20260506093003 | 76 | 174 | 5.0 | 10.0 | 0.00 | 0.00 | 0.00 | 91 | 1008.8 |
| 20260506092503 | 76 | 170 | 5.0 | 10.0 | 0.00 | 0.00 | 0.00 | 91 | 1008.7 |
| 20260506092004 | 76 | 168 | 5.0 | 8.0 | 0.00 | 0.00 | 0.00 | 91 | 1008.7 |
| 20260506091524 | 76 | 168 | 5.0 | 10.0 | 0.00 | 0.00 | 0.00 | 91 | 1008.7 |
| 20260506091004 | 76 | 167 | 5.0 | 11.0 | 0.00 | 0.00 | 0.00 | 90 | 1008.7 |
| 20260506090503 | 76 | 166 | 5.0 | 11.0 | 0.00 | 0.00 | 0.00 | 90 | 1008.6 |
| 20260506090003 | 76 | 172 | 6.0 | 13.0 | 0.00 | 0.00 | 0.00 | 90 | 1008.7 |
| 20260506085524 | 76 | 177 | 5.0 | 13.0 | 0.00 | 0.00 | 0.00 | 90 | 1008.7 |
| 20260506085004 | 76 | 173 | 5.0 | 10.0 | 0.00 | 0.00 | 0.00 | 90 | 1008.6 |
| 20260506084525 | 76 | 169 | 6.0 | 11.0 | 0.00 | 0.00 | 0.00 | 90 | 1008.6 |
| 20260506084024 | 76 | 165 | 6.0 | 11.0 | 0.00 | 0.00 | 0.00 | 90 | 1008.7 |
| 20260506083504 | 76 | 164 | 5.0 | 11.0 | 0.00 | 0.00 | 0.00 | 90 | 1008.6 |
| 20260506083003 | 76 | 172 | 6.0 | 11.0 | 0.00 | 0.00 | 0.00 | 90 | 1008.7 |
| 20260506082504 | 76 | 172 | 6.0 | 12.0 | 0.00 | 0.00 | 0.00 | 90 | 1008.7 |
| 20260506082004 | 76 | 160 | 5.0 | 12.0 | 0.00 | 0.00 | 0.00 | 90 | 1008.6 |
| 20260506081503 | 76 | 156 | 5.0 | 11.0 | 0.00 | 0.00 | 0.00 | 89 | 1008.6 |
| 20260506081003 | 76 | 168 | 6.0 | 11.0 | 0.00 | 0.00 | 0.00 | 89 | 1008.7 |
| 20260506080503 | 76 | 168 | 7.0 | 11.0 | 0.00 | 0.00 | 0.00 | 89 | 1008.6 |
| 20260506073503 | 76 | 169 | 6.0 | 12.0 | 0.00 | 0.00 | 0.00 | 89 | 1009.0 |
| 20260506073003 | 76 | 166 | 6.0 | 14.0 | 0.00 | 0.00 | 0.00 | 89 | 1009.1 |
| 20260506072524 | 76 | 164 | 7.0 | 14.0 | 0.00 | 0.00 | 0.00 | 89 | 1009.1 |
| 20260506072003 | 76 | 166 | 7.0 | 14.0 | 0.00 | 0.00 | 0.00 | 89 | 1009.2 |
| 20260506071503 | 76 | 169 | 7.0 | 14.0 | 0.00 | 0.00 | 0.00 | 89 | 1009.2 |
| 20260506071024 | 76 | 168 | 6.0 | 13.0 | 0.00 | 0.00 | 0.00 | 89 | 1009.3 |
| 20260506070503 | 76 | 169 | 6.0 | 12.0 | 0.00 | 0.00 | 0.00 | 89 | 1009.4 |
| 20260506062503 | 76 | 164 | 5.0 | 16.0 | 0.00 | 0.00 | 0.00 | 88 | 1009.3 |
| 20260506062003 | 76 | 170 | 5.0 | 11.0 | 0.00 | 0.00 | 0.00 | 88 | 1009.3 |
| 20260506061503 | 76 | 162 | 6.0 | 11.0 | 0.00 | 0.00 | 0.00 | 88 | 1009.2 |
| 20260506061003 | 76 | 163 | 6.0 | 10.0 | 0.00 | 0.00 | 0.00 | 88 | 1009.2 |
| 20260506060504 | 76 | 162 | 6.0 | 11.0 | 0.00 | 0.00 | 0.00 | 88 | 1009.2 |
| 20260506051003 | 77 | 166 | 7.0 | 20.0 | 0.00 | 0.00 | 0.00 | 87 | 1009.4 |
| 20260506050503 | 77 | 167 | 7.0 | 20.0 | 0.00 | 0.00 | 0.00 | 87 | 1009.4 |
| 20260506045003 | 77 | 164 | 6.0 | 14.0 | 0.00 | 0.00 | 0.00 | 86 | 1009.4 |
| 20260506044503 | 77 | 164 | 6.0 | 14.0 | 0.00 | 0.00 | 0.00 | 86 | 1009.5 |
| 20260506044003 | 77 | 162 | 6.0 | 14.0 | 0.00 | 0.00 | 0.00 | 86 | 1009.5 |
| 20260506043503 | 77 | 149 | 5.0 | 11.0 | 0.00 | 0.00 | 0.00 | 87 | 1009.5 |
| 20260506043003 | 77 | 150 | 5.0 | 11.0 | 0.00 | 0.00 | 0.00 | 87 | 1009.6 |
| 20260506042503 | 77 | 161 | 4.0 | 7.0 | 0.00 | 0.00 | 0.00 | 87 | 1009.4 |
| 20260506042024 | 77 | 155 | 5.0 | 10.0 | 0.00 | 0.00 | 0.00 | 87 | 1009.4 |
| 20260506041503 | 77 | 157 | 5.0 | 11.0 | 0.00 | 0.00 | 0.00 | 87 | 1009.3 |
| 20260506041003 | 77 | 153 | 5.0 | 11.0 | 0.00 | 0.00 | 0.00 | 87 | 1009.3 |
| 20260506040503 | 77 | 148 | 5.0 | 10.0 | 0.00 | 0.00 | 0.00 | 86 | 1009.3 |
| 20260506040003 | 78 | 148 | 5.0 | 10.0 | 0.00 | 0.00 | 0.00 | 86 | 1009.1 |
| 20260506035503 | 78 | 136 | 6.0 | 11.0 | 0.00 | 0.00 | 0.00 | 86 | 1008.9 |
| 20260506035024 | 78 | 144 | 6.0 | 13.0 | 0.00 | 0.00 | 0.00 | 86 | 1008.9 |
| 20260506034503 | 78 | 161 | 5.0 | 13.0 | 0.00 | 0.00 | 0.00 | 86 | 1008.9 |
| 20260506034004 | 78 | 141 | 6.0 | 11.0 | 0.00 | 0.00 | 0.00 | 86 | 1008.8 |
| 20260506033652 | 78 | 138 | 6.0 | 10.0 | 0.00 | 0.00 | 0.00 | 86 | 1008.8 |